Date,TemperatureHighF,TemperatureAvgF,TemperatureLowF,DewpointHighF,DewpointAvgF,DewpointLowF,HumidityHigh,HumidityAvg,HumidityLow,PressureMaxIn,PressureMinIn,WindSpeedMaxMPH,WindSpeedAvgMPH,GustSpeedMaxMPH,PrecipitationSumIn
2013-1-1,26,20,8,18,8,-4,79,59,37,30.47,30.34,14,8,14,0.00
2013-1-2,24,13,3,11,3,-6,69,63,51,30.49,30.39,17,7,17,0.00
2013-1-3,32,24,17,26,17,8,82,72,59,30.55,30.38,23,10,23,0.00
2013-1-4,30,20,10,23,13,1,78,73,67,30.54,30.46,30,14,30,0.00
2013-1-5,34,27,17,31,22,10,92,81,72,30.52,30.25,27,10,27,0.00
2013-1-6,34,27,14,30,20,9,88,76,68,30.61,30.21,25,11,25,0.00
2013-1-7,36,24,12,27,18,7,85,77,64,30.62,30.40,23,10,23,0.00
2013-1-8,42,32,24,34,26,20,86,80,72,30.45,30.33,19,9,19,0.00
2013-1-9,50,39,28,36,27,13,86,66,28,30.76,30.33,24,11,24,0.00
2013-1-10,42,34,26,38,29,19,99,81,55,30.76,30.24,18,8,18,0.17
2013-1-11,54,50,43,52,49,42,99,95,88,30.74,29.97,28,14,28,0.12
2013-1-12,53,45,32,50,40,29,94,86,73,30.23,30.04,27,12,27,0.07
2013-1-13,32,24,14,30,20,6,95,84,67,30.52,30.12,0,0,0,0.00
2013-1-14,24,17,13,14,9,5,73,69,62,30.71,30.51,0,0,0,0.00
2013-1-15,30,22,13,20,14,7,81,72,59,30.67,30.37,0,0,0,0.00
2013-1-16,36,27,16,27,20,10,85,74,59,30.37,30.15,33,9,33,0.26
2013-1-17,34,28,17,28,16,7,87,62,43,31.11,30.31,24,10,24,0.00
2013-1-18,37,27,0,28,19,8,80,72,59,30.69,29.83,36,15,36,0.00
2013-1-19,50,40,31,38,31,13,84,71,45,29.84,29.63,38,19,38,0.02
2013-1-20,31,20,15,15,3,0,56,48,41,30.13,29.80,30,12,32,0.00
2013-1-21,16,11,5,4,-7,-19,65,44,25,30.12,29.98,28,14,28,0.00
2013-1-22,14,8,0,-5,-8,-13,63,47,29,30.23,30.11,18,9,18,0.00
2013-1-23,23,18,12,11,1,-5,73,48,43,30.17,29.94,29,10,29,0.00
2013-1-24,25,16,7,6,-3,-9,60,44,24,30.44,30.13,22,10,23,0.00
2013-1-25,32,24,18,20,12,4,75,60,48,30.20,29.82,27,10,27,0.00
2013-1-26,31,23,14,15,8,3,67,54,34,30.23,29.99,14,6,14,0.00
2013-1-27,38,30,23,37,22,13,97,74,58,30.22,29.80,24,8,24,0.06
2013-1-28,50,46,38,49,46,37,99,99,97,29.80,29.70,36,12,36,0.06
2013-1-29,59,58,46,58,56,45,97,95,94,29.78,29.32,30,18,30,0.64
2013-1-30,33,29,25,31,26,19,93,86,78,29.43,29.18,30,6,30,1.29
2013-1-31,24,12,9,20,2,-3,82,62,56,29.91,28.34,27,18,27,0.00
2013-2-1,19,15,9,6,3,-3,63,57,51,30.13,29.91,21,12,27,0.00
2013-2-2,27,19,9,21,11,-2,85,71,59,30.03,29.83,19,9,19,0.00
2013-2-3,25,18,10,16,9,2,80,69,58,29.90,29.80,21,9,21,0.00
2013-2-4,29,28,23,23,22,15,79,77,72,29.91,29.68,14,9,14,0.00
2013-2-5,33,32,26,29,28,20,90,86,78,29.88,29.73,19,10,19,0.00
2013-2-6,36,34,30,28,27,23,81,77,71,30.01,29.88,17,8,17,0.00
2013-2-7,39,37,32,38,35,27,97,94,81,29.97,29.68,22,10,22,0.28
2013-2-8,32,29,27,26,24,22,85,82,80,30.21,30.05,22,8,22,0.01
2013-2-9,37,33,27,30,26,22,82,75,69,30.22,29.96,16,9,16,0.01
2013-2-10,47,42,33,46,40,26,96,92,76,29.96,29.40,35,18,35,0.11
2013-2-11,41,33,32,35,24,23,78,70,65,29.84,29.44,32,21,32,0.12
2013-2-12,32,29,26,23,22,19,76,74,70,29.85,29.81,17,4,26,0.12
2013-2-13,46,36,24,34,29,20,89,75,64,29.75,29.58,17,6,17,0.00
2013-2-14,39,37,31,31,29,27,86,72,70,29.81,29.62,17,9,17,0.00
2013-2-15,33,29,25,27,12,8,84,49,42,30.01,29.83,17,9,17,0.00
2013-2-16,25,19,13,13,2,-2,64,47,39,30.02,29.94,22,11,22,0.00
2013-2-17,32,26,12,16,8,-2,64,47,31,30.06,29.86,14,6,14,0.00
2013-2-18,53,40,27,44,30,15,94,69,58,29.85,29.34,40,19,40,0.26
2013-2-19,32,19,16,30,9,4,89,64,58,29.91,29.43,30,20,30,0.48
2013-2-20,23,20,18,12,12,7,71,69,61,30.17,29.91,16,7,22,0.48
2013-2-21,27,26,20,21,17,11,83,67,63,30.17,29.88,32,13,32,0.00
2013-2-22,33,29,25,28,23,20,83,77,74,29.88,29.72,27,17,32,0.02
2013-2-23,30,26,21,20,18,15,83,72,61,29.82,29.78,20,11,20,0.00
2013-2-24,38,27,14,25,18,8,81,69,54,30.72,29.82,9,4,9,0.00
2013-2-25,43,34,25,31,25,19,83,71,57,30.00,29.80,24,7,24,0.00
2013-2-26,33,32,32,32,31,28,96,95,79,29.78,29.30,20,9,20,0.13
2013-2-27,33,32,32,32,30,29,97,93,90,29.52,29.33,14,10,14,0.15
2013-2-28,34,32,32,30,28,25,93,82,78,29.88,29.52,21,13,21,0.17
2013-3-1,31,28,26,25,22,20,81,77,74,29.99,29.88,24,14,24,0.17
2013-3-2,31,28,26,22,19,14,80,68,58,30.00,29.96,21,11,21,0.00
2013-3-3,34,30,21,18,15,9,68,53,38,29.99,29.91,16,7,16,0.00
2013-3-4,34,33,24,25,24,15,75,69,65,29.94,29.81,25,12,25,0.00
2013-3-5,32,31,28,31,29,27,95,94,79,29.83,29.60,14,0,14,0.11
2013-3-6,32,30,30,29,25,24,95,81,78,30.13,29.74,14,8,14,0.12
2013-3-7,38,34,28,26,23,21,83,66,60,30.23,30.12,6,3,6,0.12
2013-3-8,41,36,26,29,26,19,85,68,59,30.31,30.15,11,5,11,0.00
2013-3-9,43,40,30,36,33,25,85,78,71,30.15,29.69,18,9,18,0.01
2013-3-10,56,51,39,49,45,34,94,81,75,29.69,29.46,30,12,30,0.30
2013-3-11,49,35,32,47,32,29,94,91,87,29.67,29.49,27,17,27,0.35
2013-3-12,41,35,31,31,27,17,87,73,61,29.87,29.67,28,17,28,0.38
2013-3-13,33,30,28,17,12,10,62,47,43,30.17,29.87,18,9,19,0.38
2013-3-14,34,32,24,30,28,16,91,85,72,30.16,29.95,10,6,10,0.01
2013-3-15,47,43,32,40,38,29,93,84,76,29.95,29.54,17,6,17,0.01
2013-3-16,37,35,32,35,31,24,97,87,70,29.93,29.49,24,13,24,0.01
2013-3-17,37,34,31,24,22,20,76,63,56,30.01,29.87,33,14,33,0.00
2013-3-18,36,31,24,34,24,12,90,75,59,29.69,29.50,28,19,28,0.02
2013-3-19,37,28,20,18,14,8,66,55,39,29.94,29.68,37,20,37,0.00
2013-3-20,29,24,18,14,7,1,59,49,35,29.94,29.86,27,14,27,0.00
2013-3-21,34,31,19,13,11,8,66,43,33,29.88,29.83,15,4,15,0.00
2013-3-22,43,33,20,20,17,11,69,53,34,29.90,29.83,14,1,14,0.00
2013-3-23,43,36,27,24,21,17,69,55,43,29.93,29.82,18,1,18,0.00
2013-3-24,36,32,30,30,26,20,97,76,54,29.82,29.43,0,0,0,0.00
2013-3-25,35,34,30,29,28,24,97,79,70,29.89,29.47,24,13,24,0.00
2013-3-26,41,38,32,28,27,24,72,64,57,30.08,29.89,11,0,11,0.00
2013-3-27,43,40,32,25,22,18,74,49,44,30.15,30.08,0,0,0,0.00
2013-3-28,52,43,34,31,28,18,76,58,35,30.15,30.10,0,0,0,0.00
2013-3-29,58,44,32,34,28,20,87,58,30,30.15,30.05,0,0,0,0.00
2013-3-30,59,46,32,40,30,18,72,54,43,30.07,29.76,12,0,12,0.00
2013-3-31,63,51,39,43,35,24,95,57,34,29.76,27.39,21,0,21,0.00
2013-4-1,42,36,30,25,15,7,61,43,26,29.99,29.73,1,0,1,0.00
2013-4-2,46,42,32,15,8,5,50,24,20,30.12,30.01,0,0,0,0.00
2013-4-3,48,41,30,15,12,7,53,32,21,30.19,30.12,10,1,10,0.00
2013-4-4,60,43,25,26,18,12,63,40,20,30.16,29.83,0,0,0,0.00
2013-4-5,50,43,35,30,18,12,77,39,24,30.02,29.83,22,6,22,0.00
2013-4-6,72,64,34,45,38,24,71,40,29,30.02,29.52,30,8,30,0.14
2013-4-7,66,57,46,48,43,26,94,61,40,30.05,29.52,20,0,20,0.14
2013-4-8,74,60,45,57,52,39,90,75,54,29.95,29.81,1,0,1,0.25
2013-4-9,79,61,45,64,54,42,99,82,53,30.02,29.80,24,6,24,0.13
2013-4-10,59,44,32,54,44,32,99,97,84,30.01,29.58,40,14,40,0.89
2013-4-11,53,50,44,52,49,42,99,99,97,29.89,29.68,26,11,26,1.13
2013-4-12,42,41,39,41,38,35,93,88,85,29.97,29.86,0,0,0,1.13
2013-4-13,76,42,0,38,34,29,94,71,58,30.00,29.86,24,2,24,2.26
2013-4-14,73,62,42,55,49,37,87,63,44,30.01,29.73,18,4,18,2.26
2013-4-15,60,52,47,58,50,2,99,97,15,30.02,29.76,0,0,0,3.06
2013-4-16,55,48,43,47,44,40,99,85,61,30.26,29.95,1,0,1,0.54
2013-4-17,57,50,46,56,49,40,99,97,80,30.26,29.87,24,2,24,0.84
2013-4-18,61,58,35,61,58,33,99,98,93,30.25,29.49,23,3,23,1.05
2013-4-19,44,37,33,42,32,30,93,84,78,30.27,27.21,0,0,0,1.13
2013-4-20,47,40,34,33,27,23,92,59,48,30.75,30.26,0,0,0,1.13
2013-4-21,55,47,32,37,33,23,78,60,46,30.84,30.67,11,1,11,1.13
2013-4-22,68,52,38,42,39,34,85,64,37,30.67,30.40,7,0,7,0.00
2013-4-23,52,50,42,48,45,42,99,82,73,30.40,29.92,1,0,1,0.38
2013-4-24,52,45,37,42,35,33,99,71,53,30.19,29.92,16,2,16,0.47
2013-4-25,53,46,38,36,33,28,89,63,41,30.36,30.15,0,0,0,0.47
2013-4-26,67,57,42,49,45,29,81,66,49,30.39,30.31,0,0,0,0.47
2013-4-27,70,63,50,52,47,39,92,57,36,30.34,30.07,18,1,18,0.01
2013-4-28,63,58,53,57,56,52,99,91,81,30.67,29.87,0,0,0,0.12
2013-4-29,73,64,46,59,55,45,99,74,54,29.99,29.85,0,0,0,0.12
2013-4-30,84,75,57,64,61,54,90,64,47,30.01,29.88,1,0,1,0.12
2013-5-1,84,77,59,63,58,54,97,53,40,30.18,30.01,0,0,0,0.12
2013-5-2,68,56,44,56,49,42,97,80,65,30.20,30.13,1,0,1,0.12
2013-5-3,64,53,42,62,52,41,99,97,92,30.17,29.94,1,0,1,0.26
2013-5-4,73,63,54,58,55,52,99,76,53,30.07,29.96,14,1,14,0.05
2013-5-5,75,66,52,54,50,42,97,60,33,30.06,29.97,20,2,20,0.05
2013-5-6,73,63,53,50,47,42,85,58,39,30.05,29.97,12,2,12,0.00
2013-5-7,78,69,49,55,49,40,76,50,26,30.07,29.99,1,0,1,0.00
2013-5-8,82,73,52,60,53,45,84,51,32,30.07,29.99,44,0,44,0.00
2013-5-9,75,66,58,66,60,50,99,83,54,30.74,29.88,1,0,1,0.21
2013-5-10,62,51,44,61,50,43,99,97,94,30.01,29.84,19,11,19,0.38
2013-5-11,64,55,42,57,46,31,99,75,43,30.01,29.77,21,2,21,0.78
2013-5-12,57,47,38,34,30,20,87,54,26,30.76,29.93,8,0,8,0.00
2013-5-13,66,63,45,38,26,23,53,25,19,29.99,29.93,0,0,0,0.00
2013-5-14,91,80,52,62,55,39,73,44,29,29.93,29.59,1,0,1,0.00
2013-5-15,84,80,70,61,53,49,73,39,33,29.71,29.62,0,0,0,0.00
2013-5-16,83,76,67,55,47,44,66,35,28,29.85,29.71,0,0,0,0.00
2013-5-17,84,72,64,67,64,46,99,79,43,29.91,29.84,3,0,3,0.24
2013-5-18,81,74,62,70,67,62,99,80,65,29.94,29.84,11,1,11,0.24
2013-5-19,88,85,65,71,67,63,98,56,45,29.84,29.68,16,1,16,0.24
2013-5-20,88,79,71,70,67,60,94,71,38,29.74,29.64,0,0,0,0.24
2013-5-21,80,77,66,72,70,65,95,80,72,29.71,29.58,0,0,0,1.42
2013-5-22,74,68,66,68,64,59,99,87,65,29.67,29.56,0,0,0,1.46
2013-5-23,62,49,43,59,44,38,99,84,77,30.12,29.67,0,0,0,1.46
2013-5-24,60,53,40,45,40,35,96,62,42,30.29,30.13,0,0,0,1.46
2013-5-25,58,55,43,49,45,36,93,70,60,30.27,30.16,0,0,0,0.00
2013-5-26,65,59,46,57,54,43,99,85,57,30.17,30.01,0,0,0,0.20
2013-5-27,66,62,56,66,62,56,99,98,93,30.03,29.72,15,7,15,1.35
2013-5-28,80,73,64,74,70,63,99,91,80,29.93,29.66,24,1,24,1.37
2013-5-29,80,72,65,72,68,65,99,88,76,29.94,29.81,0,0,0,0.31
2013-5-30,85,78,69,76,72,67,94,82,68,29.94,29.83,1,0,1,0.39
2013-5-31,75,68,65,71,68,65,99,97,86,29.92,29.72,0,0,0,0.90
2013-6-1,77,71,62,72,68,61,99,88,79,29.81,29.69,1,0,1,0.33
2013-6-2,64,56,51,62,55,48,98,94,89,30.00,29.73,0,0,0,0.01
2013-6-3,62,56,49,50,48,44,98,74,57,30.10,30.03,0,0,0,0.01
2013-6-4,71,65,51,55,51,45,93,62,45,30.11,30.05,5,0,5,0.00
2013-6-5,75,68,58,59,54,53,84,63,47,30.05,29.88,0,0,0,0.00
2013-6-6,68,62,56,58,52,46,87,70,59,29.89,29.83,15,0,15,0.02
2013-6-7,70,66,55,61,54,44,90,67,51,29.92,29.85,0,0,0,0.00
2013-6-8,79,72,53,59,54,45,74,54,37,29.98,29.90,8,1,8,0.00
2013-6-9,83,78,61,62,58,52,85,51,42,29.99,29.80,0,0,1,0.00
2013-6-10,77,73,65,70,68,64,99,85,69,29.85,29.73,0,0,0,0.01
2013-6-11,84,77,62,71,68,61,99,74,60,29.92,29.82,0,0,0,0.00
2013-6-12,90,79,70,75,70,67,99,77,49,29.86,29.58,0,0,0,0.00
2013-6-13,73,68,64,72,59,56,97,75,64,30.00,29.61,0,0,0,0.78
2013-6-14,78,71,57,66,61,56,97,72,54,30.10,30.00,0,0,0,0.00
2013-6-15,81,74,64,71,68,60,95,82,66,30.03,29.89,0,0,0,0.00
2013-6-16,84,79,68,73,70,66,94,76,65,29.94,29.87,0,0,0,0.00
2013-6-17,87,84,69,68,61,57,94,46,37,29.92,29.86,0,0,0,0.00
2013-6-18,73,67,60,65,59,54,96,77,73,30.02,29.88,0,0,0,0.05
2013-6-19,78,70,58,59,56,54,89,63,51,30.09,30.02,0,0,0,0.05
2013-6-20,90,75,0,71,63,54,84,61,43,30.85,29.33,0,0,0,0.00
2013-6-21,89,76,0,72,69,64,95,79,52,30.11,0.00,21,0,21,0.04
2013-6-22,78,72,67,78,71,67,99,94,84,29.92,29.81,0,0,0,0.41
2013-6-23,86,75,65,77,71,65,99,87,66,29.88,29.78,1,0,1,0.00
2013-6-24,87,73,67,80,70,64,99,93,63,29.93,29.70,0,0,0,0.28
2013-6-25,89,77,68,79,72,66,99,87,66,29.79,29.63,0,0,0,0.00
2013-6-26,82,74,67,78,72,53,99,95,83,29.94,29.05,57,0,57,0.58
2013-6-27,88,78,68,78,71,65,99,81,56,29.96,29.83,0,0,0,0.00
2013-6-28,82,63,0,68,65,59,99,68,50,29.92,28.90,0,0,0,0.17
2013-6-29,67,64,0,66,64,60,99,96,94,29.93,29.87,0,0,0,0.09
2013-6-30,74,67,62,66,61,54,99,81,60,30.69,29.92,16,0,16,0.00
2013-7-1,74,68,60,63,59,54,93,74,58,30.22,30.12,11,0,11,0.00
2013-7-2,68,63,61,64,60,56,98,89,72,30.24,30.18,1,0,1,0.00
2013-7-3,75,66,61,71,64,60,99,93,81,30.27,30.18,0,0,0,0.00
2013-7-4,81,71,59,69,65,59,99,81,60,30.30,30.25,0,0,0,0.00
2013-7-5,85,73,60,72,67,60,99,83,64,30.30,29.61,0,0,0,0.00
2013-7-6,81,74,68,74,70,16,99,89,12,29.96,29.83,0,0,0,0.00
2013-7-7,87,76,66,77,72,16,99,87,65,29.93,29.85,0,0,0,0.01
2013-7-8,87,77,72,78,74,71,99,89,64,29.94,29.85,1,0,1,0.04
2013-7-9,86,79,73,81,77,72,99,93,79,29.91,29.78,1,0,1,0.00
2013-7-10,86,76,64,79,72,61,99,87,62,29.89,29.73,0,0,0,0.00
2013-7-11,79,70,61,66,59,53,98,72,43,29.97,29.89,0,0,0,0.00
2013-7-12,83,68,57,67,60,55,98,77,47,30.03,29.96,9,0,9,0.00
2013-7-13,78,73,69,69,67,66,97,83,67,29.96,29.87,0,0,0,0.00
2013-7-14,90,78,64,75,70,64,99,79,52,30.02,29.95,0,0,0,0.00
2013-7-15,93,81,71,80,75,70,99,82,60,30.09,30.01,0,0,0,0.00
2013-7-16,94,82,72,79,75,71,99,80,55,30.15,30.08,9,1,9,0.00
2013-7-17,94,83,71,79,75,70,99,78,53,30.15,30.01,0,0,0,0.00
2013-7-18,95,84,72,81,76,71,99,80,54,30.02,29.82,0,0,0,0.00
2013-7-19,96,85,74,78,76,72,99,77,48,29.82,29.63,0,0,0,0.00
2013-7-20,87,80,71,78,70,61,99,74,46,29.75,29.63,0,0,0,0.08
2013-7-21,89,77,66,76,71,65,99,84,60,29.78,29.68,0,0,0,0.00
2013-7-22,88,78,69,74,71,69,99,83,56,29.69,29.59,4,0,4,0.05
2013-7-23,82,71,60,72,66,56,99,84,64,29.79,29.53,0,0,0,0.02
2013-7-24,73,63,54,57,52,48,94,69,45,29.87,29.76,14,0,14,0.00
2013-7-25,80,67,53,61,56,52,98,71,41,29.93,29.86,0,0,0,0.00
2013-7-26,77,67,61,68,63,58,99,88,66,29.89,29.71,1,0,1,0.11
2013-7-27,70,62,53,66,56,10,99,83,15,29.76,29.69,0,0,0,0.00
2013-7-28,71,60,49,57,52,48,99,76,48,29.86,29.72,0,0,0,0.00
2013-7-29,79,65,48,61,56,48,99,75,51,29.99,29.85,0,0,0,0.00
2013-7-30,67,64,56,67,63,56,99,97,86,30.00,29.88,0,0,0,0.34
2013-7-31,74,60,0,72,68,52,99,84,87,29.89,29.22,0,0,0,0.08
2013-8-1,80,71,61,69,61,54,99,74,43,29.83,29.78,0,0,0,0.00
2013-8-2,87,72,62,73,67,59,99,86,61,29.79,29.68,0,0,0,0.52
2013-8-3,79,71,63,70,63,53,99,78,49,29.93,29.76,0,0,0,0.08
2013-8-4,79,68,57,65,59,56,99,77,48,30.00,29.93,0,0,0,0.00
2013-8-5,78,67,58,68,64,58,99,90,66,29.94,29.71,0,0,0,0.18
2013-8-6,82,72,64,75,70,63,99,93,77,29.75,29.68,0,0,0,0.00
2013-8-7,84,76,69,80,74,69,99,93,83,29.75,29.10,0,0,0,0.00
2013-8-8,79,71,65,70,66,57,99,83,64,29.82,29.75,0,0,0,0.00
2013-8-9,83,71,60,69,64,57,99,80,55,29.86,29.79,0,0,0,0.00
2013-8-10,82,73,64,71,65,58,99,79,52,29.94,29.86,0,0,0,0.00
2013-8-11,83,71,59,68,62,57,96,76,51,29.96,29.87,0,0,0,0.00
2013-8-12,87,74,63,74,68,62,99,85,56,29.89,29.69,0,0,0,0.00
2013-8-13,71,65,57,68,57,45,99,76,46,29.96,29.73,0,0,0,0.00
2013-8-14,71,61,52,59,54,50,97,78,52,30.03,29.96,0,0,0,0.00
2013-8-15,78,65,51,61,56,51,99,74,43,30.01,29.92,0,0,0,0.00
2013-8-16,79,68,60,61,57,52,98,69,42,30.01,29.94,0,0,0,0.00
2013-8-17,80,68,55,64,58,54,99,74,45,30.05,29.98,0,0,0,0.00
2013-8-18,84,70,56,66,61,56,99,76,44,30.02,29.91,0,0,0,0.00
2013-8-19,87,74,59,68,64,59,99,74,47,29.94,29.85,0,0,0,0.00
2013-8-20,88,76,63,71,67,62,99,76,47,29.96,29.86,0,0,0,0.00
2013-8-21,90,77,65,74,68,64,99,77,46,30.03,29.81,0,0,0,0.00
2013-8-22,75,70,66,72,70,66,99,97,90,29.94,29.82,0,0,0,0.00
2013-8-23,82,70,62,70,63,58,99,80,45,29.98,29.90,0,0,0,0.00
2013-8-24,84,72,60,67,62,58,98,75,49,30.07,29.97,0,0,0,0.00
2013-8-25,88,74,61,72,65,58,94,76,49,30.09,29.98,0,0,0,0.00
2013-8-26,90,76,63,77,71,62,99,84,61,30.01,29.85,0,0,0,0.00
2013-8-27,92,80,71,79,74,70,99,83,58,29.85,29.71,0,0,0,0.00
2013-8-28,87,76,0,78,72,68,98,82,71,29.85,29.21,14,3,14,0.00
2013-8-29,88,77,70,75,70,16,98,81,52,29.89,29.79,11,2,11,0.00
2013-8-30,95,79,68,80,72,16,99,82,48,29.80,29.61,0,0,0,0.00
2013-8-31,84,74,67,76,71,67,99,93,74,29.67,29.56,0,0,0,0.00
2013-9-1,84,74,67,75,71,67,99,92,68,29.63,29.57,0,0,0,0.00
2013-9-2,80,70,60,71,66,17,99,86,53,29.80,29.57,0,0,0,0.00
2013-9-3,76,65,57,62,59,56,99,81,55,29.90,29.79,0,0,0,0.00
2013-9-4,82,68,53,66,59,52,99,76,46,29.96,29.86,0,0,0,0.00
2013-9-5,80,67,59,66,60,51,99,80,55,30.03,29.93,0,0,0,0.00
2013-9-6,87,71,57,68,61,52,95,71,50,30.03,29.84,0,0,0,0.00
2013-9-7,90,75,63,70,66,62,99,77,42,29.85,29.72,1,0,1,0.00
2013-9-8,87,76,70,72,70,68,98,82,56,29.81,29.73,17,5,17,0.00
2013-9-9,97,80,66,77,72,66,99,78,46,30.53,29.66,17,5,17,0.00
2013-9-10,98,83,69,73,69,64,99,69,35,29.86,29.74,0,0,0,0.00
2013-9-11,96,80,70,72,70,68,98,75,41,29.89,29.80,0,0,0,0.00
2013-9-12,84,69,0,72,65,50,99,78,36,29.87,29.25,23,2,23,0.00
2013-9-13,67,59,51,60,52,45,99,79,49,29.96,29.87,22,6,22,0.00
2013-9-14,72,58,44,52,46,38,99,68,32,30.00,29.86,11,2,11,0.00
2013-9-15,74,60,50,60,54,46,99,82,49,29.93,29.78,17,5,17,0.00
2013-9-16,67,59,50,58,53,49,99,84,54,30.13,29.93,18,6,18,0.00
2013-9-17,74,60,48,57,53,47,99,79,52,30.12,29.92,15,5,15,0.00
2013-9-18,86,70,58,70,64,56,97,81,56,29.92,29.76,17,6,17,0.00
2013-9-19,92,76,66,76,71,66,99,86,52,29.81,29.65,19,10,19,0.00
2013-9-20,76,76,74,73,73,73,95,92,90,29.67,29.65,16,9,16,0.00
2013-9-21,69,53,52,69,51,48,99,91,85,30.11,29.92,6,2,6,0.00
2013-9-22,69,58,48,53,49,46,95,74,43,30.04,29.94,14,4,14,0.00
2013-9-23,72,63,54,50,48,42,83,61,35,29.94,29.91,10,4,10,0.00
2013-9-24,74,60,47,55,50,46,99,73,41,29.96,29.81,16,6,16,0.00
2013-9-25,55,54,52,51,51,50,93,88,85,29.82,29.80,7,3,7,0.00
2013-9-26,78,63,49,58,55,49,99,79,36,29.99,29.87,6,2,6,0.00
2013-9-27,83,67,52,59,52,45,98,64,29,30.07,29.96,17,4,17,0.00
2013-9-28,86,69,53,62,54,48,95,62,37,30.00,29.84,27,8,27,0.00
2013-9-29,72,62,51,65,55,49,99,81,50,29.95,29.85,21,5,21,0.00
2013-9-30,76,61,47,58,53,46,99,79,41,29.91,29.79,14,4,14,0.00
2013-10-1,80,69,57,68,64,57,99,86,62,29.90,29.82,21,8,21,0.00
2013-10-2,82,70,64,71,67,63,99,90,63,29.99,29.89,16,4,16,0.00
2013-10-3,82,69,64,74,67,62,99,95,65,29.90,29.76,36,4,36,0.00
2013-10-4,87,69,0,74,68,62,99,81,52,29.89,29.19,0,0,0,0.00
2013-10-5,80,72,67,75,70,66,99,94,80,29.88,29.69,0,0,0,0.00
2013-10-6,67,56,48,67,50,42,99,82,51,29.72,29.61,0,0,0,0.00
2013-10-7,67,54,43,53,47,42,99,80,47,30.16,29.69,0,0,0,0.00
2013-10-8,77,60,45,56,49,44,99,72,35,30.27,30.16,0,0,0,0.00
2013-10-9,74,60,46,53,47,39,99,67,30,30.31,30.17,0,0,0,0.00
2013-10-10,77,62,47,59,52,46,99,73,46,30.24,30.12,0,0,0,0.00
2013-10-25,51,39,26,32,29,23,87,70,45,30.48,30.11,0,0,0,0.00
2013-10-26,57,45,30,38,33,26,85,65,48,30.15,29.94,0,0,0,0.00
2013-10-27,56,41,28,36,30,25,96,69,37,30.25,30.05,0,0,0,0.00
2013-10-28,60,47,38,45,40,32,99,79,35,30.38,30.27,0,0,0,0.00
2013-10-29,57,48,38,48,45,37,99,89,60,30.38,30.16,0,0,0,0.00
2013-10-30,64,57,48,63,57,48,99,98,97,30.17,29.86,0,0,0,0.00
2013-10-31,62,53,47,62,53,47,99,99,97,29.82,29.34,0,0,0,0.01
2013-11-1,52,47,44,49,46,44,99,94,79,29.82,29.51,0,0,0,0.00
2013-11-2,49,43,38,44,41,37,99,93,75,30.20,29.82,0,0,0,0.00
2013-11-3,55,43,35,47,39,34,99,87,60,30.36,30.19,0,0,0,0.00
2013-11-4,58,49,40,47,43,39,96,82,61,30.33,30.20,0,0,0,0.41
2013-11-5,56,52,50,55,49,46,99,88,77,30.35,30.07,0,0,0,0.01
2013-11-6,56,47,0,56,47,28,99,92,70,30.23,29.19,115,0,115,0.47
2013-11-7,47,36,28,38,31,27,97,83,66,30.33,30.22,0,0,0,0.00
2013-11-8,50,39,26,39,33,25,99,80,57,30.40,30.08,0,0,0,0.00
2013-11-9,62,50,41,45,39,34,88,69,45,30.20,29.98,0,0,0,0.00
2013-11-10,49,41,34,38,32,29,87,71,51,30.41,30.20,0,0,0,0.00
2013-11-11,49,38,26,42,34,18,99,84,68,30.51,30.16,0,0,0,0.06
2013-11-12,32,26,22,24,18,15,80,71,49,30.73,30.51,0,0,0,0.00
2013-11-13,38,28,16,26,20,11,86,72,55,30.66,30.28,0,0,0,0.00
2013-11-14,51,38,27,30,26,18,78,62,42,30.28,30.05,0,0,0,0.00
2013-11-15,48,41,33,44,34,26,89,76,61,30.09,30.02,0,0,0,0.00
2013-11-16,60,54,38,59,52,36,99,94,83,30.04,29.70,0,0,0,0.11
2013-11-17,68,57,42,66,54,38,99,91,77,29.85,29.31,0,0,51,0.60
2013-11-18,46,39,32,39,32,25,95,76,52,30.31,29.85,0,0,0,0.00
2013-11-19,44,34,26,32,27,20,87,76,56,30.42,30.31,0,0,0,0.00
2013-11-20,45,37,28,40,32,24,96,82,65,30.35,30.15,0,0,0,0.06
2013-11-21,50,46,41,47,44,39,99,93,85,30.24,30.17,0,0,0,0.20
2013-11-22,46,36,27,45,32,24,98,86,71,30.26,29.92,0,0,0,0.02
2013-11-23,27,22,15,24,11,0,88,62,39,30.22,29.97,0,0,0,0.00
2013-11-24,27,18,11,8,4,-1,67,55,37,30.26,29.96,0,0,0,0.00
2013-11-25,32,27,16,27,19,7,90,71,54,29.96,29.65,0,0,0,0.00
2013-11-26,36,28,18,30,21,2,86,75,47,29.67,29.54,0,0,0,0.00
2013-11-27,27,20,13,12,6,1,71,54,42,29.82,29.66,0,0,0,0.00
2013-11-28,37,28,20,17,14,10,73,56,41,30.03,29.73,0,0,0,0.00
2013-11-29,38,27,16,22,16,6,74,63,47,30.16,29.96,0,0,0,0.00
2013-11-30,51,36,28,31,25,19,79,66,45,30.39,29.62,0,0,0,0.00
2013-12-1,46,34,27,36,30,22,95,82,63,29.64,29.52,0,0,0,0.00
2013-12-2,43,37,33,37,33,30,98,85,64,29.52,27.87,0,0,0,0.02
2013-12-3,52,45,37,50,44,35,99,97,94,29.31,29.24,0,0,0,0.00
2013-12-4,56,50,42,56,49,38,99,97,85,29.31,29.08,0,0,0,0.01
2013-12-5,42,27,22,38,19,11,90,72,61,29.79,29.28,0,0,0,0.00
2013-12-6,22,19,14,12,8,3,68,62,53,30.05,29.75,0,0,0,0.00
2013-12-7,21,14,8,5,0,-2,66,55,37,30.21,30.06,0,0,0,0.00
2013-12-8,26,22,12,23,14,3,88,73,61,30.11,29.50,0,0,0,0.00
2013-12-9,26,19,5,23,10,-7,88,70,48,29.79,29.50,0,0,0,0.00
2013-12-10,24,14,-3,11,2,-14,67,58,53,29.84,29.61,0,0,0,0.00
2013-12-11,38,13,-1,34,3,-14,85,65,46,29.97,29.79,0,0,0,0.00
2013-12-12,25,10,-5,12,-1,-18,69,59,51,29.95,29.61,0,0,0,0.00
2013-12-13,15,13,11,8,5,4,73,72,69,29.62,29.55,0,0,0,0.00
2013-12-14,27,24,7,22,19,-9,84,80,48,30.49,29.92,0,0,0,0.00
2013-12-15,21,14,9,17,6,2,83,71,63,30.76,29.92,0,0,0,0.00
2013-12-16,24,18,12,16,11,5,87,76,63,30.09,29.96,0,0,0,0.00
2013-12-17,31,23,18,27,18,13,89,81,68,30.07,29.93,0,0,0,0.00
2013-12-18,36,22,7,31,14,-1,80,71,59,30.14,29.82,0,0,0,0.00
2013-12-19,42,38,34,38,34,31,99,88,80,29.90,29.73,0,0,0,0.02
2013-12-20,40,37,27,40,37,22,99,99,80,30.11,29.70,0,0,0,0.22
2013-12-21,34,33,30,34,32,30,99,99,98,29.99,29.65,0,0,0,0.27
2013-12-22,36,32,28,35,31,23,99,95,82,30.27,29.68,0,0,0,0.05
2013-12-23,28,14,0,23,10,-9,86,59,59,30.60,30.27,0,0,0,0.00
2013-12-24,19,10,0,9,-1,-11,72,62,55,30.71,30.41,0,0,0,0.00
2013-12-25,28,25,19,26,19,9,89,77,63,30.50,30.27,0,0,0,0.00
2013-12-26,35,27,14,28,20,8,85,75,66,30.45,30.26,0,0,0,0.00
2013-12-27,44,34,23,34,28,19,91,80,65,30.45,30.26,0,0,0,0.00
2013-12-28,51,39,31,38,32,27,88,78,61,30.27,30.01,0,0,0,0.00
2013-12-29,36,29,17,31,24,9,93,82,71,30.30,29.93,0,0,0,0.00
2013-12-30,17,13,6,9,3,-4,75,66,61,30.46,30.30,0,0,0,0.00
2013-12-31,17,12,1,10,4,-8,77,71,64,30.52,30.30,0,0,0,0.00
2014-1-1,20,19,15,14,13,10,80,76,74,30.40,29.88,0,0,0,0.00
2014-1-2,19,14,2,13,7,-8,81,73,58,30.16,29.83,0,0,0,0.00